Location: Newark
(49.8846°N, 10.8879°E)
Time: 09:09:56
(UTC+00:00)

ISS - Visible Passes

Search period start: 09 December 2019 00:00
Search period end: 19 December 2019 00:00
Orbit: 411 x 421 km, 51.6° (Epoch: 09 December)

Date Brightness Start Highest point End Pass type
(mag) Time Alt. Az. Time Alt. Az. Time Alt. Az.
09 Dec -2.4 16:37:56 10° W 16:41:06 39° SSW 16:44:15 10° SE visible
10 Dec -3.0 15:49:24 10° WNW 15:52:42 55° SSW 15:56:00 10° SE visible
10 Dec -0.6 17:27:18 10° WSW 17:28:52 13° SW 17:30:28 10° SSW visible
11 Dec -0.9 16:38:09 10° W 16:40:37 19° SW 16:43:05 10° S visible
12 Dec -1.4 15:49:22 10° W 15:52:17 28° SW 15:55:13 10° SSE visible
14 Dec -0.3 15:49:55 10° WSW 15:51:41 14° SW 15:53:26 10° S visible
